FW3268 Weather Reports


time (UTC)temp
C
wind
direction
speed
KPH
gust
KPH
rain 1hr
cm
rain 24hr
cm
rain mn
cm
humidity
%
barometer
mb
20260906064459 18 55 0.0 0.0 0.00 0.00 0.00 93 1015.6
20260906063000 19 52 0.0 0.0 0.00 0.00 0.00 92 1015.7
20260906061459 20 51 0.0 0.0 0.00 0.00 0.00 91 1015.6
20260906060003 20 53 0.0 0.0 0.00 0.00 0.00 92 1015.3
20260906054500 20 65 0.0 0.0 0.00 0.00 0.00 93 1015.2
20260906053000 20 56 0.0 0.0 0.00 0.00 0.00 93 1015.3
20260906051459 20 56 0.0 0.0 0.00 0.00 0.00 93 1015.2
20260906050004 20 56 0.0 0.0 0.00 0.00 0.00 93 1015.2
20260906044501 21 56 0.0 0.0 0.00 0.00 0.00 93 1014.9
20260906043001 21 56 0.0 0.0 0.00 0.00 0.00 93 1014.8
20260906041501 21 60 0.0 0.0 0.00 0.00 0.00 93 1014.8
20260906040006 21 52 0.0 0.0 0.00 0.00 0.00 92 1014.8
20260906034501 22 59 0.0 0.0 0.00 0.00 0.00 92 1015.0
20260906033002 22 78 0.0 0.0 0.00 0.00 0.00 92 1014.9
20260906031502 22 49 0.0 0.0 0.00 0.00 0.00 92 1015.0
20260906030004 22 68 0.0 0.0 0.00 0.00 0.00 91 1014.5
20260906024501 22 64 0.0 0.0 0.00 0.00 0.00 91 1014.5
20260906023002 23 60 0.0 0.0 0.00 0.00 0.00 92 1014.2
20260906021502 23 73 0.0 0.0 0.00 0.00 0.00 93 1014.1
20260906020005 23 69 0.0 0.0 0.00 0.00 0.00 94 1014.1
20260906013001 23 72 0.0 0.0 0.00 0.00 0.00 93 1013.5
20260906011501 23 51 0.0 0.0 0.00 0.00 0.00 92 1013.1
20260906010005 24 63 0.0 0.0 0.00 0.00 0.00 90 1012.9
20260906004502 25 49 0.0 0.0 0.00 0.00 0.00 88 1012.7
20260906003002 26 41 0.0 0.0 0.00 0.00 0.00 89 1012.7
20260906001501 26 122 0.0 0.0 0.00 0.00 0.00 88 1012.2
20260905234507 26 125 0.0 0.0 0.00 0.00 0.00 84 1012.5
20260905231501 27 124 0.0 0.0 0.00 0.00 0.00 80 1012.3
20260905230003 28 124 0.0 0.0 0.00 0.00 0.00 80 1012.1
20260905224502 28 130 0.0 0.0 0.00 0.00 0.00 77 1012.1
20260905223000 28 130 0.0 0.0 0.00 0.00 0.00 77 1012.2
20260905221501 26 129 0.0 0.0 0.00 0.00 0.00 80 1012.2
20260905220003 26 125 0.0 0.0 0.00 0.00 0.00 80 1012.3
20260905214500 26 160 0.0 0.0 0.00 0.00 0.00 83 1012.4
20260905213001 27 41 0.0 0.0 0.00 0.00 0.00 79 1011.6
20260905211500 30 46 0.0 0.0 0.00 0.00 0.00 76 1012.0
20260905210004 31 322 0.0 0.0 0.00 0.00 0.00 71 1011.4
20260905204500 31 307 0.0 0.0 0.00 0.00 0.00 70 1011.6
20260905203001 31 284 0.0 0.0 0.00 0.00 0.00 72 1011.7
20260905201500 31 290 0.0 0.0 0.00 0.00 0.00 72 1012.0
20260905200004 31 321 0.0 0.0 0.00 0.00 0.00 74 1012.2
20260905194502 30 318 0.0 0.0 0.00 0.00 0.00 75 1012.4
20260905193001 30 291 0.0 0.0 0.00 0.00 0.00 75 1012.6
20260905191500 30 303 0.0 0.0 0.00 0.00 0.00 75 1012.5
20260905190002 31 322 0.0 0.0 0.00 0.00 0.00 70 1012.7
20260905184500 31 277 0.0 0.0 0.00 0.00 0.00 69 1012.9
20260905174502 30 266 0.0 0.0 0.00 0.00 0.00 71 1013.3
20260905173000 28 245 0.0 0.0 0.00 0.00 0.00 72 1013.7
20260905171501 28 241 0.0 0.0 0.00 0.00 0.00 71 1013.8
20260905170003 28 237 0.0 0.0 0.00 0.00 0.00 73 1014.2
20260905164500 27 214 0.0 0.0 0.00 0.00 0.00 73 1014.4
20260905163001 27 225 0.0 0.0 0.00 0.00 0.00 75 1014.5
20260905161500 28 166 0.0 0.0 0.00 0.00 0.00 74 1014.4
20260905160003 27 228 0.0 0.0 0.00 0.00 0.00 74 1014.2
20260905154500 27 229 0.0 0.0 0.00 0.00 0.00 75 1014.2
20260905153000 26 201 0.0 0.0 0.00 0.00 0.00 78 1014.2
20260905151500 26 231 0.0 0.0 0.00 0.00 0.00 77 1014.1
20260905150003 25 198 0.0 0.0 0.00 0.00 0.00 79 1014.5
20260905144500 25 193 0.0 0.0 0.00 0.00 0.00 79 1014.2
20260905143000 25 165 0.0 0.0 0.00 0.00 0.00 80 1014.3
20260905141500 23 160 0.0 0.0 0.00 0.00 0.00 83 1014.0
20260905140005 23 174 0.0 0.0 0.00 0.00 0.00 83 1014.1
20260905134501 23 160 0.0 0.0 0.00 0.00 0.00 85 1013.9
20260905133000 22 108 0.0 0.0 0.00 0.00 0.00 86 1014.1
20260905130004 21 149 0.0 0.0 0.00 0.00 0.00 89 1014.5
20260905124501 21 127 0.0 0.0 0.00 0.00 0.00 90 1014.4
20260905123000 21 120 0.0 0.0 0.00 0.00 0.00 92 1014.3
20260905121500 20 143 0.0 0.0 0.00 0.00 0.00 93 1014.4
20260905120004 20 141 0.0 0.0 0.00 0.00 0.00 93 1014.2
20260905114459 20 167 0.0 0.0 0.00 0.00 0.00 92 1014.2
20260905112959 20 116 0.0 0.0 0.00 0.00 0.00 92 1014.2
20260905111459 20 97 0.0 0.0 0.00 0.00 0.00 91 1013.9
20260905103000 21 118 0.0 0.0 0.00 0.00 0.00 90 1014.1
20260905101500 21 91 0.0 0.0 0.00 0.00 0.00 89 1014.0
20260905100001 22 91 0.0 0.0 0.00 0.00 0.00 89 1014.1
20260905094459 23 279 0.0 0.0 0.00 0.00 0.00 91 1013.1
20260905093000 23 279 0.0 0.0 0.00 0.00 0.00 90 1013.1
20260905091459 25 279 0.0 0.0 0.00 0.00 0.00 88 1013.1
20260905090001 25 279 0.0 0.0 0.00 0.00 0.00 88 1013.0
20260905084459 25 283 0.0 0.0 0.00 0.00 0.00 88 1012.9
20260905082959 25 267 0.0 0.0 0.00 0.00 0.00 88 1013.0
20260905081459 24 262 0.0 0.0 0.00 0.00 0.00 90 1012.8
20260905080002 24 260 0.0 0.0 0.00 0.00 0.00 90 1012.7
20260905073000 23 247 0.0 0.0 0.00 0.00 0.00 93 1012.5